Home   Weather   Kennebunk   Past weeks

Flag for USA Past Weather in Kennebunk, Maine, USA — Yesterday and Last 2 Weeks

Now
56 °F

Overcast.


Feels Like: 54 °F
Forecast: 54 / 68 °F
Wind: 7 mph from Southwest

Location: Sanford Municipal

Current Time: Sep 27, 2016 at 3:12:09 AM

Latest Report: Sep 27, 2016 at 2:56 AM


Visibility: 10 mi

Pressure: 29.96 "Hg

Humidity: 77%

Dew Point: 49 °F

Location of KennebunkLocation

Past Weather in Kennebunk — Graph

°F

Kennebunk Temperature Yesterday

Maximum temperature yesterday: 64 °F (at 2:56 PM)
Minimum temperature yesterday: 29 °F (at 6:56 AM)
Average temperature yesterday: 48 °F

High & Low Weather Summary for the Past Weeks

 TemperatureHumidityPressure
High83 °F (Sep 13, 2:56 PM)100% (Sep 12, 5:56 AM)30.39 "Hg (Sep 12, 5:56 AM)
Low29 °F (Sep 26, 6:56 AM)28% (Sep 13, 4:56 PM)29.98 "Hg (Sep 23, 1:56 PM)
Average61 °F76%30.15 "Hg
* Reported Sep 12 12:56 AM — Sep 27 12:56 AM, Kennebunk, Weather by CustomWeather, © 2016

Note: Actual official high and low records may vary slightly from our data, if they occured in-between our weather recording intervals... More about our weather records

Advertising

Kennebunk Weather History for the Previous 24 Hours

Scroll right to see more
 ConditionsComfort  
Time TempWeatherWind HumidityBarometerVisibility
12:56 AM
Tue, Sep 27
52 °FOvercast.5 mph83%30.01 "Hg10 mi
11:56 PM
Mon, Sep 26
48 °FPassing clouds.No wind93%30.05 "Hg10 mi
10:56 PM46 °FClear.No wind96%30.07 "Hg10 mi
9:56 PM47 °FClear.No wind93%30.07 "Hg10 mi
8:56 PM49 °FClear.No wind90%30.09 "Hg10 mi
7:56 PM51 °FClear.No wind80%30.10 "Hg10 mi
6:56 PM52 °FClear.No wind75%30.11 "Hg10 mi
5:56 PM57 °FSunny.3 mph62%30.11 "Hg10 mi
4:56 PM59 °FSunny.6 mph56%30.11 "Hg10 mi
3:56 PM62 °FSunny.3 mph48%30.13 "Hg10 mi
2:56 PM64 °FSunny.5 mph37%30.15 "Hg10 mi
1:56 PM63 °FSunny.5 mph38%30.16 "Hg10 mi
12:56 PM63 °FSunny.10 mph37%30.18 "Hg10 mi
11:56 AM61 °FSunny.5 mph36%30.21 "Hg10 mi
10:56 AM60 °FSunny.5 mph36%30.23 "Hg10 mi
9:56 AM58 °FSunny.3 mph41%30.24 "Hg10 mi
8:56 AM52 °FSunny.3 mph69%30.25 "Hg10 mi
7:56 AM39 °FSunny.No wind93%30.25 "Hg10 mi
6:56 AM29 °FSunny.No wind96%30.24 "Hg10 mi
5:56 AM30 °FClear.3 mph96%30.23 "Hg10 mi
4:56 AM31 °FClear.No wind96%30.22 "Hg10 mi
3:56 AM32 °FClear.No wind92%30.21 "Hg10 mi
Weather by CustomWeather, © 2016

See weather overviewHow to use our weather pages